User: anonymous   Login
Location: Unspecified
(0.0000°N, 0.0000°E)
Time: 14:53:45
(UTC+00:00)
Language:

CZ-3B DEB - Orbit

View from above orbital plane
View from above orbital plane
View from above satellite
View from above satellite

Ground track
Ground track

The orbit data is extracted from the following two-line orbital elements,

1 40186U 11077K   21101.39941187 -.00000247  00000-0  00000-0 0  9996
2 40186  25.4742 200.2964 7277125 174.8795  45.8857  1.88711746 63379
Epoch (UTC): 11 April 2021 09:35:09
Eccentricity: 0.7277125
inclination: 25.4742°
perigee height: 1153 km
apogee height: 41412 km
right ascension of ascending node: 200.2964°
argument of perigee: 174.8795°
revolutions per day: 1.88711746
mean anomaly at epoch: 45.8857°
orbit number at epoch: 6337

The dashed part of the orbit path shows where the satellite is in the earth's shadow,  

DLR